SL-3 DEB, 25255

Orbit data source: Space-Track

SL-3 DEB, 25255 is space debris in LEO originally from a launch on Thu, 14 May 1981 UTC launched from the Plesetsk Missile And Space Complex (PKMTR). Debris objects in space refer to the collection of defunct objects orbiting the Earth. Examples of debris include non-operational satellites, rocket bodies, and fragments generated from explosions, collisions, or faulty payload assembly.

Loading next visibility...
Identifier
25255, 1981-043D
Orbit
LEO
Country
Flag of CISCIS
Related business
Manufacturer
Unknown
Mission
Spacecraft
Bus & Motor
Unknown
Mass
Unknown
Launch date (UTC)
1981-05-14 (44 years ago)
Launch vehicle
Unknown
Launch site
Plesetsk Missile And Space Complex (PKMTR)
Object type
Payload
Rocket body
Debris
Shape & HBR
Unknown shape, 0.1 m
Radar Cross Section
Small (<0.1 m²)

Expand to show TLE details & history
Last TLE update: 16 hours ago

TLE from 16 hours ago
0 SL-3 DEB
1 25255U 81043D   25310.68802711  .00000111  00000-0  56483-4 0  9992
2 25255  81.2989  34.8579 0047315 135.7831  16.3857 14.08607650490664
Epoch: 2025-11-06T16:30Z
TLE epoch observation values (Epoch: 2025-11-06T16:30:45.542Z)
Latitude
27.37268°
Longitude
-83.49519°
Altitude
834.605 km
Speed
7.455 km/s
True Right ascension
14h 01m 20s
True Declination
27° 14' 02"
Sunlit
Object was in daylight at epoch
Visualization orbit readout
Latitude
Unknown
Longitude
Unknown
Altitude
Unknown
Speed
Unknown
Apparent Right ascension
Unknown
Apparent Declination
Unknown
Sunlit
N/A
Visualization observer readout
Local Sidereal Time
05:01:52
Azimuth
Unknown
Elevation
Unknown
Doppler factor
Unknown
Orbital elements
Apogee altitude
895.567 km
Perigee altitude
827.06 km
Semi-major axis
7,239.451 km
Eccentricity
0.00473
Inclination
81.2989°
RAAN
34.8579°
Arg. of periapsis
135.7831°
True anomaly
16.53953°
Mean anomaly
16.3857°
Eccentric anomaly
16.46253°
Mean motion
3.52359 °/min
Orbital period
102.17 mins
BSTAR
0.000056483
Loading maneuver chart data...
Computing Atmospheric mass density...
Loading historical data...
Loading historical data...
Loading historical data...
Loading historical data...
Loading historical data...
Loading historical data...
Loading historical data...

Documentation

Showing up to 5 results
|